Big Bear Station Historical Data
Daily Summary for June 7, 2017 Units:  English    Metric   Both
« Previous Day
Next Day »
Daily Weekly Monthly Yearly Custom
  High: Low: Average:
Temperature: 79.7 °F 45.1 °F 61.4 °F
Dew Point: 45.4 °F 21.3 °F 37.5 °F
Humidity: 80 % 22 % 46 %
Wind Speed: 9.9 mph 0.0 mph 2.2 mph
Wind Gust: -999.0 mph - -
Wind:- - WSW
Pressure: 30.19 in 30.16 in -
Precipitation: 0.00 in    
Historical Graphs
 
 
Tabular Data for June 7, 2017
Time Temperature Dew Point Pressure Wind Wind Speed Wind Gust Humidity Rainfall Rate (Hourly)
00:06 53.1 °F 37.8 °F 30.18 in South 1.7 mph -999.0 mph 56 % 0 in
00:21 52.5 °F 39.4 °F 30.17 in Calm   -999.0 mph 61 % 0 in
00:36 52.2 °F 39.6 °F 30.18 in Calm   -999.0 mph 62 % 0 in
00:52 51.6 °F 39.0 °F 30.17 in Calm   -999.0 mph 62 % 0 in
01:07 51.4 °F 38.4 °F 30.17 in Calm   -999.0 mph 61 % 0 in
01:22 51.1 °F 39.3 °F 30.17 in Calm   -999.0 mph 64 % 0 in
01:37 50.5 °F 39.2 °F 30.17 in Calm   -999.0 mph 65 % 0 in
01:53 50.0 °F 39.9 °F 30.17 in Calm   -999.0 mph 68 % 0 in
02:08 49.6 °F 38.7 °F 30.16 in Calm   -999.0 mph 66 % 0 in
02:23 49.1 °F 39.4 °F 30.16 in Calm   -999.0 mph 69 % 0 in
02:38 49.1 °F 39.7 °F 30.16 in Calm   -999.0 mph 70 % 0 in
02:53 48.7 °F 40.1 °F 30.16 in Calm   -999.0 mph 72 % 0 in
03:09 48.2 °F 39.6 °F 30.16 in Calm   -999.0 mph 72 % 0 in
03:24 48.0 °F 39.4 °F 30.16 in Calm   -999.0 mph 72 % 0 in
03:39 47.5 °F 40.0 °F 30.16 in Calm   -999.0 mph 75 % 0 in
03:54 47.3 °F 39.8 °F 30.16 in Calm   -999.0 mph 75 % 0 in
04:09 46.9 °F 39.4 °F 30.16 in Calm   -999.0 mph 75 % 0 in
04:25 46.8 °F 39.3 °F 30.16 in Calm   -999.0 mph 75 % 0 in
04:40 46.6 °F 39.4 °F 30.16 in Calm   -999.0 mph 76 % 0 in
04:55 46.4 °F 39.2 °F 30.16 in Calm   -999.0 mph 76 % 0 in
05:10 46.0 °F 39.2 °F 30.16 in Calm   -999.0 mph 77 % 0 in
05:25 45.7 °F 37.9 °F 30.16 in Calm   -999.0 mph 74 % 0 in
05:41 45.5 °F 38.7 °F 30.16 in Calm   -999.0 mph 77 % 0 in
05:56 45.3 °F 38.8 °F 30.16 in Calm   -999.0 mph 78 % 0 in
06:11 45.1 °F 38.7 °F 30.16 in Calm   -999.0 mph 78 % 0 in
06:26 45.7 °F 39.2 °F 30.16 in Calm   -999.0 mph 78 % 0 in
06:41 45.9 °F 40.1 °F 30.16 in Calm   -999.0 mph 80 % 0 in
06:57 46.2 °F 40.4 °F 30.16 in Calm   -999.0 mph 80 % 0 in
07:12 47.8 °F 41.3 °F 30.16 in Calm   -999.0 mph 78 % 0 in
07:27 48.2 °F 41.3 °F 30.16 in Calm   -999.0 mph 77 % 0 in
07:42 50.0 °F 42.7 °F 30.16 in Calm   -999.0 mph 76 % 0 in
07:58 51.8 °F 43.1 °F 30.17 in Calm   -999.0 mph 72 % 0 in
08:13 54.3 °F 42.8 °F 30.17 in Calm   -999.0 mph 65 % 0 in
08:28 55.2 °F 43.6 °F 30.17 in Calm   -999.0 mph 65 % 0 in
08:43 57.9 °F 45.4 °F 30.17 in NNW 1.7 mph -999.0 mph 63 % 0 in
08:58 61.2 °F 39.7 °F 30.17 in NNW 3.2 mph -999.0 mph 45 % 0 in
09:14 64.2 °F 38.1 °F 30.17 in NW 3.7 mph -999.0 mph 38 % 0 in
09:29 65.3 °F 41.0 °F 30.17 in NNW 3.2 mph -999.0 mph 41 % 0 in
09:44 66.4 °F 38.6 °F 30.17 in WNW 4.2 mph -999.0 mph 36 % 0 in
09:59 67.1 °F 38.5 °F 30.17 in NW 3.2 mph -999.0 mph 35 % 0 in
10:14 67.6 °F 39.0 °F 30.17 in NNW 3.2 mph -999.0 mph 35 % 0 in
10:30 68.5 °F 39.0 °F 30.17 in North 4.2 mph -999.0 mph 34 % 0 in
10:45 69.1 °F 39.6 °F 30.18 in NNW 5.3 mph -999.0 mph 34 % 0 in
11:00 70.2 °F 39.7 °F 30.18 in WNW 4.2 mph -999.0 mph 33 % 0 in
11:16 70.9 °F 37.9 °F 30.18 in NW 5.8 mph -999.0 mph 30 % 0 in
11:32 72.0 °F 38.0 °F 30.19 in NW 3.7 mph -999.0 mph 29 % 0 in
11:48 73.2 °F 38.1 °F 30.19 in West 3.7 mph -999.0 mph 28 % 0 in
12:03 74.5 °F 37.4 °F 30.19 in NNW 3.7 mph -999.0 mph 26 % 0 in
12:19 75.9 °F 39.5 °F 30.19 in NNW 5.3 mph -999.0 mph 27 % 0 in
12:34 76.3 °F 37.9 °F 30.19 in North 5.8 mph -999.0 mph 25 % 0 in
12:49 76.6 °F 40.1 °F 30.19 in NNW 5.3 mph -999.0 mph 27 % 0 in
13:04 77.0 °F 39.5 °F 30.19 in NNE 4.2 mph -999.0 mph 26 % 0 in
13:20 76.5 °F 41.0 °F 30.19 in North 5.3 mph -999.0 mph 28 % 0 in
13:35 76.5 °F 39.1 °F 30.19 in ENE 6.3 mph -999.0 mph 26 % 0 in
13:50 77.7 °F 40.1 °F 30.19 in NNW 4.2 mph -999.0 mph 26 % 0 in
14:05 79.7 °F 39.7 °F 30.19 in NW 5.8 mph -999.0 mph 24 % 0 in
14:21 79.2 °F 39.3 °F 30.18 in NNW 5.8 mph -999.0 mph 24 % 0 in
14:36 78.3 °F 40.6 °F 30.19 in South 3.2 mph -999.0 mph 26 % 0 in
14:51 77.4 °F 38.8 °F 30.19 in WNW 4.7 mph -999.0 mph 25 % 0 in
15:06 78.1 °F 40.4 °F 30.18 in WSW 1.7 mph -999.0 mph 26 % 0 in
15:21 76.6 °F 41.1 °F 30.18 in NW 8.9 mph -999.0 mph 28 % 0 in
15:37 76.8 °F 42.1 °F 30.18 in NNW 3.7 mph -999.0 mph 29 % 0 in
15:52 77.5 °F 41.8 °F 30.18 in SSW 3.7 mph -999.0 mph 28 % 0 in
16:07 77.4 °F 39.8 °F 30.18 in NW 3.2 mph -999.0 mph 26 % 0 in
16:23 75.7 °F 37.4 °F 30.17 in South 3.7 mph -999.0 mph 25 % 0 in
16:38 76.1 °F 36.7 °F 30.17 in SSE 3.7 mph -999.0 mph 24 % 0 in
16:54 76.6 °F 37.1 °F 30.17 in SSE 4.2 mph -999.0 mph 24 % 0 in
17:09 75.9 °F 37.6 °F 30.17 in WSW 2.7 mph -999.0 mph 25 % 0 in
17:24 78.6 °F 37.7 °F 30.17 in NW 9.9 mph -999.0 mph 23 % 0 in
17:39 76.6 °F 37.1 °F 30.17 in WSW 3.7 mph -999.0 mph 24 % 0 in
17:54 76.1 °F 34.5 °F 30.16 in West 4.7 mph -999.0 mph 22 % 0 in
18:10 75.9 °F 35.4 °F 30.16 in WNW 3.7 mph -999.0 mph 23 % 0 in
18:25 75.4 °F 36.1 °F 30.16 in West 2.2 mph -999.0 mph 24 % 0 in
18:40 74.3 °F 37.2 °F 30.16 in WNW 2.7 mph -999.0 mph 26 % 0 in
18:56 72.9 °F 36.0 °F 30.16 in NW 4.2 mph -999.0 mph 26 % 0 in
19:11 71.8 °F 35.1 °F 30.16 in NW 3.7 mph -999.0 mph 26 % 0 in
19:27 67.1 °F 35.4 °F 30.17 in NNE 2.2 mph -999.0 mph 31 % 0 in
19:42 63.5 °F 34.6 °F 30.16 in Calm   -999.0 mph 34 % 0 in
19:57 61.7 °F 33.8 °F 30.16 in SW 1.1 mph -999.0 mph 35 % 0 in
20:13 60.3 °F 33.2 °F 30.17 in NW 2.2 mph -999.0 mph 36 % 0 in
20:28 59.4 °F 32.4 °F 30.17 in WNW 2.7 mph -999.0 mph 36 % 0 in
20:43 58.3 °F 32.1 °F 30.17 in Calm   -999.0 mph 37 % 0 in
20:58 57.2 °F 30.5 °F 30.17 in Calm   -999.0 mph 36 % 0 in
21:14 55.9 °F 30.0 °F 30.17 in Calm   -999.0 mph 37 % 0 in
21:29 55.0 °F 29.2 °F 30.18 in SSE 1.7 mph -999.0 mph 37 % 0 in
21:44 54.5 °F 30.0 °F 30.18 in SSE 2.2 mph -999.0 mph 39 % 0 in
21:59 54.0 °F 30.2 °F 30.18 in Calm   -999.0 mph 40 % 0 in
22:14 53.4 °F 29.7 °F 30.19 in SSE 1.7 mph -999.0 mph 40 % 0 in
22:30 53.4 °F 29.7 °F 30.18 in South 2.7 mph -999.0 mph 40 % 0 in
22:45 52.7 °F 29.0 °F 30.18 in ESE 3.2 mph -999.0 mph 40 % 0 in
23:00 52.7 °F 28.4 °F 30.18 in South 2.7 mph -999.0 mph 39 % 0 in
23:15 52.5 °F 26.3 °F 30.18 in SSE 2.2 mph -999.0 mph 36 % 0 in
23:30 53.6 °F 24.4 °F 30.17 in South 2.2 mph -999.0 mph 32 % 0 in
23:46 52.7 °F 21.3 °F 30.17 in SSE 2.2 mph -999.0 mph 29 % 0 in
Big Bear CA Weather
Compliments of Weather Underground - 1.5 mb